Location: Chassagnes
(44.4047°N, 4.1657°E)
Time: 12:17:40
(UTC+00:00)

H-2A R/B - Pass Details

Date: 27 October 2020
Orbit: 733 x 837 km, 98.2° (Epoch: 23 November)

Event Time Altitude Azimuth Distance (km) Brightness Sun altitude
Exits shadow 18:58:48 - 175° (S) 2,816 4.8 -25.5°
Reaches altitude 10° 18:59:49 10° 177° (S) 2,421 4.5 -25.6°
Maximum altitude 19:05:10 65° 259° (WSW) 919 2.5 -26.6°
Drops below altitude 10° 19:10:36 10° 341° (NNW) 2,460 4.9 -27.5°
Sets 19:13:01 0° 344° (NNW) 3,398 5.7 -28.0°
